Regional Weather Roundup
Issued by NWS

Home | Current Version | Previous Version | Text Only | Print | Product List | Glossary On
Versions: 1 2 3 4 5 6 7 8 9 10 11 12 13 14 15 16 17 18 19 20 21 22 23 24 25 26 27 28 29 30 31 32 33 34 35 36 37 38 39 40 41 42 43 44 45 46 47 48 49 50
000
ASUS43 KLSX 251707
RWRMO

WEATHER SUMMARY FOR MISSOURI
NATIONAL WEATHER SERVICE SPRINGFIELD MO
1200 PM CDT WED MAY 25 2016

NOTE: "FAIR" INDICATES FEW OR NO CLOUDS BELOW 12,000 FEET WITH NO
       SIGNIFICANT WEATHER AND/OR OBSTRUCTIONS TO VISIBILITY.
       CURRENT SKY AND/OR WEATHER CONDITIONS ARE NOT AVAILABLE FOR
       CHILLICOTHE AND FARMINGTON.

MOZ001>031-035>038-043-044-053-054-251800-
...NORTHERN AND WESTERN MISSOURI...

CITY           SKY/WX    TMP DP  RH WIND       PRES   REMARKS
KANSAS CTY INT CLOUDY    73  61  65 NE9       29.96R
KANSAS C DTWN  CLOUDY    76  63  64 NE8       29.93R
LEE`S SUMMIT   PTSUNNY   74  63  68 CALM      29.95R
ST JOSEPH      CLOUDY    73  62  68 NE6       29.93F
CHILLICOTHE      N/A     77  63  61 SE5       29.94S
KIRKSVILLE     CLOUDY    73  64  73 SE6       29.95F

$$
MOZ066>068-077>081-088>096-101>105-251800-
...SOUTHWEST MISSOURI...

CITY           SKY/WX    TMP DP  RH WIND       PRES   REMARKS
SPRINGFIELD    CLOUDY    68  59  73 E7        29.94R
JOPLIN         SUNNY     77  62  59 S14       29.92R
BRANSON        LGT RAIN  63  61  94 E17G26    29.97F

$$
MOZ032>034-039>042-045>050-055>058-069>072-251800-
...CENTRAL MISSOURI...

CITY           SKY/WX    TMP DP  RH WIND       PRES   REMARKS
COLUMBIA       CLOUDY    75  66  73 SE10      29.95S
JEFFERSON CITY PTSUNNY   75  66  73 SE15      29.93F
ROLLA          LGT RAIN  75  64  68 S18G29    29.96F
SEDALIA        CLOUDY    77  64  64 MISG      29.95R
WHITEMAN AFB   PTSUNNY   74  64  69 NE7       29.93R
WARRENSBURG    PTSUNNY   73  63  68 NE3       29.94R

$$
MOZ051-052-059>065-251800-
...EAST CENTRAL MISSOURI...

CITY           SKY/WX    TMP DP  RH WIND       PRES   REMARKS
ST LOUIS INTL  CLOUDY    77  65  66 S16G23    30.01R
SPIRIT OF STL  PTSUNNY   76  68  76 S12       29.99R
ST CHARLES     MOSUNNY   78  68  71 S14       29.98R

$$
MOZ072>076-082>087-097>100-106>115-251800-
...SOUTH CENTRAL AND SOUTHEAST MISSOURI...

CITY           SKY/WX    TMP DP  RH WIND       PRES   REMARKS
CAPE GIRARDEAU CLOUDY    75  66  73 S8        30.07S
FARMINGTON     PTSUNNY   73  67  81 S8G18     30.06S
POPLAR BLUFF   CLOUDY    73  66  78 SW7       30.06F
WEST PLAINS    CLOUDY    72  63  73 W8        30.09S

$$


USA.gov is the U.S. government's official web portal to all federal, state and local government web resources and services.